DIAMANT R/B, 2682

Orbit data source: Space-Track

DIAMANT R/B, 2682 is space debris in LEO originally from a launch on Wed, 15 Feb 1967 UTC launched from the Hamma Guira Space Track Range (HGSTR). Debris objects in space refer to the collection of defunct objects orbiting the Earth. Examples of debris include non-operational satellites, rocket bodies, and fragments generated from explosions, collisions, or faulty payload assembly.

Loading next visibility...
Identifier
2682, 1967-014B
Orbit
LEO
Country
Flag of FRFR
Related business
Manufacturer
Sud
Mission
Spacecraft
Bus & Motor
RUBIS, Unknown motor
Mass
65 kg wet, 65 kg dry
Launch date (UTC)
1967-02-15 (59 years ago)
Launch vehicle
Unknown
Launch site
Hamma Guira Space Track Range (HGSTR)
Object type
Payload
Rocket body
Debris
Shape & HBR
Unknown
Radar Cross Section
Large (>1 m²)

Expand to show TLE details & history
Last TLE update: 14 hours ago

TLE from 14 hours ago
0 DIAMANT R/B
1 02682U 67014B   26035.21030792  .00001086  00000-0  46722-3 0  9995
2 02682  39.4626 135.6490 0747586 275.0155  76.5719 13.32437916846147
Epoch: 2026-02-04T05:02Z
TLE epoch observation values (Epoch: 2026-02-04T05:02:50.604Z)
Latitude
-0.00003°
Longitude
-74.44204°
Altitude
1,047.201 km
Speed
7.373 km/s
True Right ascension
09h 02m 35s
True Declination
0° 00' 00"
Sunlit
Object was in full shadow at epoch
Visualization orbit readout
Latitude
Unknown
Longitude
Unknown
Altitude
Unknown
Speed
Unknown
Apparent Right ascension
Unknown
Apparent Declination
Unknown
Sunlit
N/A
Visualization observer readout
Local Sidereal Time
20:38:23
Azimuth
Unknown
Elevation
Unknown
Doppler factor
Unknown
Orbital elements
Apogee altitude
1,701.955 km
Perigee altitude
577.877 km
Semi-major axis
7,518.053 km
Eccentricity
0.07476
Inclination
39.4626°
RAAN
135.649°
Arg. of periapsis
275.0155°
True anomaly
85.05786°
Mean anomaly
76.5719°
Eccentric anomaly
80.80015°
Mean motion
3.32955 °/min
Orbital period
108.12 mins
BSTAR
0.00046722
Loading maneuver chart data...
Computing Atmospheric mass density...
Loading historical data...
Loading historical data...
Loading historical data...
Loading historical data...
Loading historical data...
Loading historical data...
Loading historical data...

Documentation

Showing up to 5 results
|